Regional Weather Roundup
Issued by NWS

Home | Current Version | Previous Version | Text Only | Print | Product List | Glossary Off
Versions: 1 2 3 4 5 6 7 8 9 10 11 12 13 14 15 16 17 18 19 20 21 22 23 24 25 26 27 28 29 30 31 32 33 34 35 36 37 38 39 40 41 42 43 44 45 46 47 48 49 50

275
ASUS44 KLIX 170905
RWRLA
LOUISIANA WEATHER ROUNDUP
NATIONAL WEATHER SERVICE NEW ORLEANS LA
400 AM CDT WED SEP 17 2014

NOTE: "FAIR" INDICATES FEW OR NO CLOUDS BELOW 12,000 FEET WITH NO
      SIGNIFICANT WEATHER AND/OR OBSTRUCTIONS TO VISIBILITY.
      SKY/WX - SKY CONDITION AND SIGNIFICANT WEATHER.
      TMP - AIR TEMPERATURE.    DP   - DEWPOINT TEMPERATURE.
      RH  - RELATIVE HUMIDITY.  PRES - PRESSURE.
      HX  - HEAT INDEX.         WCI  - WIND CHILL INDEX.

*  THESE STATIONS ARE NOT NWS OR FAA STATIONS AND ARE NOT UNDER
   NWS QUALITY CONTROL.

LAZ040-048-061>063-065-066-069-171000-
SOUTHEAST LOUISIANA

CITY           SKY/WX    TMP DP  RH WIND       PRES   REMARKS
N.O. AUDUBON     N/A     75  75 100 MISG        N/A
N.O. INTL ARPT CLOUDY    76  70  82 W3        29.97R
N.O. LAKEFRONT CLOUDY    79  71  76 N7        29.96S
N.O. DOWNTOWN* FAIR      79  70  73 CALM      29.96F
SLIDELL        CLOUDY    73  70  90 N3        29.95F
BATON ROUGE    MOCLDY    73  71  93 W3        29.97S
BOOTHVILLE     CLOUDY    77  75  93 W3        29.96S
BELLE CHASSE   CLOUDY    76  72  87 CALM      29.96S
BOGALUSA*      FAIR      73  70  89 CALM      29.97F
GALLIANO*      NOT AVBL
NEW ROADS*     FOG       72  71  98 CALM      29.97F VSB 1
GONZALES*      FAIR      72  72 100 CALM      29.97S
HAMMOND*       CLOUDY    73  70  88 CALM      29.98R FOG
HOUMA*         CLOUDY    74  71  89 CALM      29.97S
PORT FOURCHON* NOT AVBL

$$

LAZ041-044-053-054-171000-
SOUTHWEST LOUISIANA

CITY           SKY/WX    TMP DP  RH WIND       PRES   REMARKS
LAKE CHARLES   PTCLDY    75  74  96 CALM      29.95F
LAFAYETTE      CLOUDY    74  73  97 CALM      29.98S
PATTERSON      CLOUDY    72  72 100 CALM      30.00S
SALT POINT       N/A     76  73  91 CALM      29.97S
NEW IBERIA     MOCLDY    73  71  93 CALM      29.98F
CHENAULT AIRPK FOG       74  74 100 CALM      29.97S VSB 3/4

$$

LAZ027-028-171000-
CENTRAL LOUISIANA

CITY           SKY/WX    TMP DP  RH WIND       PRES   REMARKS
FORT POLK      CLOUDY    71  71 100 CALM      29.97S
ALEXANDRIA INT CLEAR     71  70  96 S3        29.96S FOG
ALEXANDRIA     PTCLDY    71  69  93 CALM      29.97F

$$

LAZ001-002-171000-
NORTHWEST LOUISIANA

CITY           SKY/WX    TMP DP  RH WIND       PRES   REMARKS
SHREVEPORT     CLOUDY    74  71  91 CALM      29.97F
BARKSDALE AFB  MOCLDY    72  72  99 CALM      29.98S
DTN SHREVEPORT MOCLDY    74  71  91 CALM      29.98S

$$

LAZ014-016-171000-
NORTHEAST LOUISIANA

CITY           SKY/WX    TMP DP  RH WIND       PRES   REMARKS
MONROE         CLOUDY    72  70  93 NE3       29.98F FOG
TALLULAH       MOCLDY    70  68  93 N3        29.96F

$$




USA.gov is the U.S. government's official web portal to all federal, state and local government web resources and services.